CAPE
49 43 31 48 62 89 106 76 43 22 9 6 16 68 59 57 19 2 25 0 0 0 0 0 0 0 0 0 0 5 10 9 10 16 16 16 20 18
40 13 59 38 29 96 102 75 51 29 7 16 22 40 66 52 2 32 12 0 0 0 0 0 0 0 0 0 0 0 1 2 5 6 8 15 13 13
47 16 15 10 13 44 97 66 54 22 15 0 171 110 158 46 34 9 1 1 0 0 0 0 0 0 0 0 0 0 0 0 1 3 4 5 10 10
22 21 7 7 12 49 63 41 35 25 13 8 107 147 74 32 8 8 19 2 0 0 0 0 0 0 0 0 0 0 0 0 0 0 0 2 6 7
8 5 1 4 5 16 39 18 20 18 15 7 66 7 0 5 30 32 6 4 0 0 0 0 0 0 0 0 0 0 0 0 0 0 0 0 2 4
1 0 0 1 3 6 20 18 16 10 10 10 14 0 41 26 17 4 16 0 1 5 0 0 0 0 0 0 0 0 0 0 0 0 0 0 0 1
0 0 1 8 1 3 1 1 7 6 10 4 51 9 25 3 10 26 2 3 10 3 0 0 0 0 0 0 0 0 0 0 0 0 0 0 0 0
2 0 1 2 3 3 1 1 0 10 45 1 19 10 17 2 27 1 3 6 25 2 5 8 2 1 0 0 0 0 0 0 0 0 0 0 0 0
2 0 0 0 0 0 2 0 0 0 1 0 0 0 0 34 1 6 2 5 9 20 0 1 1 2 2 1 1 0 0 0 0 0 0 0 0 0
2 0 0 0 0 0 0 0 0 0 0 1 0 0 0 8 0 0 1 1 0 0 0 1 1 3 2 1 1 0 1 1 0 0 0 1 0 1
1 2 0 0 1 0 0 0 0 0 0 0 0 0 0 1 0 0 0 0 0 0 0 0 0 0 0 2 4 2 0 0 1 1 1 1 0 0
0 0 5 0 0 0 0 0 0 0 0 0 0 0 0 1 1 0 0 0 0 0 0 0 0 0 0 2 2 2 2 0 1 0 0 0 0 2
1 0 1 4 2 1 0 0 0 0 0 0 0 0 0 0 0 0 1 0 0 0 0 0 0 0 1 0 1 2 2 2 2 1 2 1 0 1
0 0 0 1 2 1 0 0 0 0 0 0 0 0 0 0 0 0 0 0 0 0 0 0 1 0 1 2 3 1 2 2 2 2 2 1 2 2
0 0 0 0 0 0 0 0 0 0 0 0 0 0 0 0 0 0 0 0 0 0 0 0 2 4 0 3 3 2 1 2 2 2 2 2 2 1
0 0 0 0 0 0 0 0 0 0 0 0 0 0 0 0 0 0 0 0 0 0 0 0 0 1 0 1 1 1 1 2 1 2 2 1 1 2
0 0 0 0 0 0 0 0 0 0 0 0 0 0 0 0 0 0 0 0 1 1 0 0 0 0 0 1 2 3 2 2 2 2 0 1 3 4
0 0 0 0 0 0 0 0 0 0 0 0 0 0 0 0 0 0 0 0 0 0 0 0 0 0 0 0 3 1 1 1 2 3 0 0 1 5
0 0 0 0 0 0 0 0 0 0 0 0 0 0 0 0 0 0 0 0 0 0 0 0 0 0 0 0 0 1 0 2 1 0 1 0 0 1
0 0 0 0 0 0 0 0 0 0 0 0 0 0 0 0 0 0 0 0 0 0 0 0 0 0 0 0 0 0 1 3 1 1 2 5 3 0
0 0 0 0 0 0 0 0 0 0 0 0 0 0 0 0 0 0 0 0 0 0 1 3 5 1 2 0 0 0 0 0 0 5 7 6 5 5
0 0 0 0 0 0 0 0 0 0 0 0 0 0 0 0 0 0 0 0 0 0 0 2 1 1 0 0 0 0 0 0 0 0 0 0 0 0
0 0 0 0 0 0 0 0 0 0 0 0 0 0 0 0 0 0 0 0 0 0 0 0 0 0 0 0 0 0 0 0 0 0 0 0 0 0
CIN
0 0 0 0 0 0 0 0 0 0 0 0 0 0 0 0 -2 0 0 0 0 0 0 0 0 0 0 -8 0 -29 -21 -19 -13 -6 -4 -6 -4 -3
0 0 0 0 0 0 0 0 0 0 0 0 -7 0 0 0 -1 0 0 0 0 0 0 0 0 0 0 0 0 0 -43 -28 -21 -18 -16 -10 -10 -8
0 0 0 0 0 0 0 0 0 0 0 0 0 0 0 0 0 -1 0 0 0 0 0 0 0 0 0 0 0 0 0 0 -38 -30 -22 -17 -12 -12
0 0 0 0 0 0 0 0 0 0 0 0 -1 0 0 0 0 -2 -24 -8 0 0 0 0 0 0 0 0 0 0 0 0 0 0 -32 -22 -16 -14
0 0 0 0 -1 0 0 0 0 0 0 0 -1 -3 0 -9 -1 -21 -41 -38 0 0 0 0 0 0 0 0 0 0 0 0 0 0 0 -8 -19 -18
0 0 0 0 0 0 0 0 0 0 0 0 0 0 -1 -1 -31 -11 -11 -1 0 -82 0 0 0 0 0 0 0 0 0 0 0 0 0 0 -16 -26
0 0 0 0 0 0 0 0 0 0 0 0 -1 -17 -4 -2 -10 -17 -1 0 -27 -4 0 0 0 0 0 0 0 0 0 0 0 0 0 0 0 0
0 0 0 0 0 0 0 0 0 0 0 0 -4 -12 -5 -14 -5 -1 -1 -1 -1 -18 -9 -24 -59 0 0 0 0 0 0 0 0 0 0 0 0 0
0 0 0 0 0 0 0 0 0 0 0 0 0 0 0 -10 -1 -46 -10 -3 -3 -8 -4 0 0 0 0 0 0 0 0 0 0 0 0 0 0 0
0 0 0 0 0 0 0 0 0 0 0 0 0 0 0 -12 -2 -1 -2 -1 0 0 0 0 0 0 0 0 0 0 0 0 0 0 0 0 0 0
0 0 0 0 0 0 0 0 0 0 0 0 0 0 0 0 0 -1 0 0 0 0 -1 0 0 0 0 0 0 0 0 0 0 0 0 0 0 0
0 0 0 0 0 0 0 0 0 0 0 0 0 0 0 0 0 0 0 0 0 0 0 0 0 0 0 0 0 0 0 0 0 0 0 0 0 0
0 0 0 0 0 0 0 0 0 0 0 0 0 0 0 0 0 0 0 0 0 0 0 0 0 0 0 0 0 0 0 0 0 0 0 0 0 0
0 0 0 0 0 0 0 0 0 0 0 0 0 0 0 0 0 0 0 0 0 0 0 0 0 0 0 0 0 0 0 0 0 0 0 0 0 0
0 0 0 0 0 0 0 0 0 0 0 0 0 0 0 0 0 0 0 0 0 0 0 0 0 0 0 0 0 0 0 0 0 0 0 0 0 0
0 0 0 0 0 0 0 0 0 0 0 0 0 0 0 0 0 0 0 0 0 0 0 0 0 0 0 0 0 0 0 0 0 0 0 0 0 0
0 0 0 0 0 0 0 0 0 0 0 0 0 0 0 0 0 0 0 0 0 0 0 0 0 0 0 0 0 0 0 0 0 0 0 0 0 0
0 0 0 0 0 0 0 0 0 0 0 0 0 0 0 0 0 0 0 0 0 0 0 0 0 0 0 0 0 0 0 0 0 0 0 0 0 0
0 0 0 0 0 0 0 0 0 0 0 0 0 0 0 0 0 0 0 0 0 0 0 0 0 0 0 0 0 0 0 0 0 0 0 0 0 0
0 0 0 0 0 0 0 0 0 0 0 0 0 0 0 0 0 0 0 0 0 0 0 0 0 0 0 0 0 0 0 0 0 0 0 0 0 0
0 0 0 0 0 0 0 0 0 0 0 0 0 0 0 0 0 0 0 0 0 0 0 0 0 0 0 0 0 0 0 0 0 0 0 0 0 0
0 0 0 0 0 0 0 0 0 0 0 0 0 0 0 0 0 0 0 0 0 0 0 0 0 0 0 0 0 0 0 0 0 0 0 0 0 0
0 0 0 0 0 0 0 0 0 0 0 0 0 0 0 0 0 0 0 0 0 0 0 0 0 0 0 0 0 0 0 0 0 0 0 0 0 0
Wind_Speed
10 10 9 9 9 10 10 10 10 9 11 14 12 14 10 10 10 13 13 18 16 27 26 28 27 24 23 23 22 22 21 21 21 18 17 18 18 18
7 9 8 8 10 10 10 10 11 11 6 11 14 13 12 10 11 13 12 23 26 26 25 26 26 24 22 21 20 20 19 19 18 16 15 15 17 16
7 7 10 11 9 11 11 11 12 11 10 8 12 14 13 12 11 10 16 21 19 29 27 25 26 23 22 21 20 19 19 17 16 15 14 15 16 16
9 10 9 6 11 14 12 15 11 11 9 14 11 12 12 15 13 19 18 17 20 27 28 26 26 24 22 21 20 19 18 17 16 15 14 13 13 13
12 12 6 6 9 9 11 11 9 10 12 10 6 6 11 10 20 17 17 18 15 25 25 24 24 23 22 21 20 19 18 16 17 15 13 13 12 11
11 10 6 5 8 12 11 14 13 11 11 10 10 12 12 19 17 17 16 14 14 14 16 16 20 21 20 19 18 18 17 16 16 15 14 13 12 11
10 10 9 14 11 5 4 7 13 11 9 13 12 14 17 18 18 14 16 17 15 13 12 11 12 11 10 14 14 17 16 16 15 14 13 12 12 11
12 10 8 13 11 15 18 22 17 11 16 12 13 16 19 19 15 14 16 16 14 10 14 12 10 8 6 7 11 15 15 16 14 14 13 12 11 9
16 14 12 10 8 7 26 31 32 30 24 14 16 11 14 17 18 19 20 14 12 13 14 11 10 12 9 11 11 12 13 13 12 12 11 10 9 7
22 18 16 16 16 16 19 21 23 23 18 14 14 10 8 17 18 17 18 17 16 13 13 8 9 11 9 13 26 19 16 13 11 11 11 14 14 13
19 24 19 20 24 24 21 19 20 15 16 26 28 29 29 22 18 16 13 17 13 7 8 6 4 9 9 11 10 26 25 21 17 12 12 16 20 21
18 22 35 24 32 28 19 17 20 15 15 18 17 21 21 21 20 16 13 15 11 10 4 6 4 4 6 5 8 9 9 21 28 24 16 7 7 10
15 15 17 35 34 33 29 19 14 10 17 16 15 13 15 15 13 14 12 11 10 6 2 4 3 5 6 4 4 9 9 9 9 13 27 26 24 10
16 13 16 31 36 35 25 27 23 17 13 15 15 13 13 13 12 15 19 17 16 12 4 4 5 6 7 4 4 5 10 10 9 10 9 14 26 29
12 19 26 30 32 29 34 30 22 14 14 15 15 13 10 8 13 15 18 21 23 20 15 14 11 11 8 7 6 3 4 8 9 9 9 11 10 9
16 16 19 23 26 23 21 20 16 14 14 14 13 11 10 11 13 9 13 14 17 15 21 20 18 15 14 11 10 9 7 5 6 8 9 10 10 10
15 16 16 16 16 16 16 17 15 15 15 12 12 12 13 13 12 10 13 16 17 12 14 15 21 22 17 14 12 10 9 9 7 7 9 10 10 9
17 16 15 15 16 15 15 15 16 18 14 13 13 13 13 13 12 11 15 15 16 12 12 10 11 11 12 17 24 10 9 8 7 8 7 9 8 8
15 15 15 14 14 14 14 15 15 14 14 14 14 13 12 11 13 13 14 12 14 11 10 6 9 12 13 12 2 22 7 6 5 9 7 7 5 3
14 14 14 13 14 14 14 15 14 13 14 13 14 13 13 13 13 14 12 13 11 10 10 10 10 7 8 5 6 2 16 3 6 7 5 5 4 9
12 12 11 12 12 13 12 12 13 13 12 12 13 12 12 12 14 13 14 16 14 11 12 11 10 11 8 5 5 3 4 13 10 2 4 3 3 3
9 10 10 10 10 10 10 10 11 12 12 12 12 11 11 11 12 12 11 12 11 10 10 7 7 6 6 7 8 6 4 3 7 11 10 6 1 2
8 8 7 8 8 8 10 10 10 9 10 9 10 9 9 10 10 10 10 10 9 8 8 8 6 5 7 6 7 5 5 5 4 4 2 2 3 3
Wind_Direction
271 256 244 238 234 235 231 221 226 232 233 214 236 210 202 192 168 177 183 199 184 152 145 142 141 142 145 145 144 147 148 148 148 151 150 149 148 149
260 252 243 232 222 231 217 218 221 230 268 212 215 180 193 163 171 177 186 168 157 141 128 137 136 137 137 137 139 140 140 144 145 146 146 144 149 147
283 272 256 234 216 207 213 210 216 220 236 271 206 167 171 162 173 178 157 151 140 131 129 134 131 132 133 131 132 135 132 138 136 138 139 140 146 145
317 300 282 217 191 201 198 206 209 216 222 247 193 163 166 178 175 152 146 142 143 129 130 131 128 130 131 129 131 134 133 134 133 134 131 135 139 145
326 316 314 159 174 184 197 195 197 210 221 236 211 158 161 190 145 127 124 128 125 129 121 124 125 128 129 131 133 134 134 131 134 138 134 134 135 139
330 335 13 126 168 181 186 198 205 211 217 229 234 166 171 139 129 123 125 124 126 131 127 133 132 124 126 129 131 132 136 137 138 140 138 140 139 142
356 2 19 67 87 97 210 213 216 214 212 181 192 118 126 137 129 125 121 130 124 121 117 122 127 127 129 125 129 134 136 137 141 142 144 142 145 144
8 9 29 39 69 102 101 80 66 164 186 138 112 104 124 127 123 125 131 126 128 125 121 113 119 109 106 141 118 132 136 142 145 145 147 146 147 147
30 20 18 28 17 52 60 58 52 44 39 75 84 69 94 127 127 128 123 121 121 128 101 78 82 65 46 40 62 121 133 137 138 140 140 140 143 135
33 25 33 26 25 57 66 62 61 51 41 55 65 61 64 119 111 109 114 110 87 89 104 84 78 72 62 56 44 58 67 77 95 114 108 94 90 75
32 36 34 33 37 46 59 60 59 49 52 65 63 57 55 61 99 111 106 109 102 79 72 97 83 93 58 46 46 52 57 57 60 65 102 112 107 93
35 36 35 44 46 48 56 56 54 33 45 46 42 41 49 51 43 106 113 106 115 97 7 92 125 101 72 23 31 35 50 57 59 56 60 125 114 101
37 33 36 42 46 49 54 52 51 51 58 63 55 53 51 52 50 59 66 88 99 83 350 98 129 85 71 115 44 33 37 38 53 58 55 56 56 72
38 35 39 48 51 49 50 51 52 55 61 68 65 56 61 63 63 71 76 71 64 66 23 112 101 115 116 104 90 44 43 40 45 52 52 56 63 61
42 42 44 47 50 51 48 48 48 51 59 66 68 67 58 72 84 82 80 82 66 48 34 48 85 99 84 96 119 65 67 34 40 53 55 52 49 42
38 41 42 46 51 50 48 46 46 48 55 62 65 66 68 67 64 67 86 82 74 60 49 47 64 77 85 73 85 77 52 81 43 54 63 60 54 48
46 43 39 41 45 42 44 45 46 48 50 51 64 74 69 69 68 69 79 85 84 81 75 67 67 70 68 75 74 67 74 72 57 65 67 68 51 41
51 46 41 39 41 42 45 48 44 45 47 51 56 59 64 64 71 73 74 79 89 86 90 92 95 89 79 61 42 73 66 71 70 62 67 77 56 49
47 42 43 43 43 45 44 47 49 49 51 52 54 58 61 63 67 66 75 84 83 81 70 65 88 98 92 82 33 28 74 66 78 82 55 65 100 42
41 42 42 41 45 46 43 46 45 45 49 50 53 55 56 59 61 63 63 71 76 74 72 53 57 63 95 116 129 86 31 107 93 94 103 99 111 142
39 41 37 42 42 43 45 47 50 52 50 52 54 56 59 63 69 69 71 70 76 72 76 72 69 73 86 86 80 80 43 41 48 101 156 135 143 175
48 43 39 39 40 43 44 41 49 48 50 52 52 52 56 60 68 73 73 79 78 81 89 99 95 68 64 90 98 107 113 83 76 83 73 42 322 187
48 52 48 40 48 44 45 49 44 44 46 50 57 56 52 61 63 68 75 77 85 88 95 104 104 100 100 107 113 122 140 181 176 156 113 75 80 72